Date String (YYYY-MM-DD hh:mm:ss) UTC,Instrument flags,absolute air pressure of the measurement (hPa),sample flow rate (lpm),inlet stack bypass flow (lpm),air temperature of the measurement (°C),ambient temperature measured by the external sensor (°C),aerosol sample conditioner tube jacket temperature (°C),OPC LED temperature (°C),internal box temperature (°C),relative humidity of the measurement (%),span deviation,mass concentration of particles derived from Lorenz-Mie calculation of OPC scattering (μg/m³),mass concentration of particles derived from Lorenz-Mie calculation of OPC scattering (μg/m³),mass concentration of particles derived from Lorenz-Mie calculation of OPC scattering (μg/m³)
DateTimeUTC,F1_M11,P_M11,Q1_M11,Q2_M11,T1_M11,T2_M11,T3_M11,T4_M11,T5_M11,U1_M11,ZSPAN_M11,X0_M11,X2_M11,X1_M11
2023-08-16 00:00:00,SystemResetWarning,0835.1,5.00,000.00,028.9,027.6,000.0,037.2,030.7,16.0,0000.0,0011.38,0003.89,0003.33
2023-08-16 00:01:00,SystemResetWarning,0835.1,5.00,000.00,029.0,027.3,000.0,037.1,030.7,15.6,0000.0,0011.51,0003.91,0003.33
2023-08-16 00:02:00,SystemResetWarning,0835.0,5.00,000.00,028.9,025.5,000.0,037.0,030.3,15.6,0000.0,0012.58,0003.90,0003.33
2023-08-16 00:03:00,SystemResetWarning,0835.0,5.02,000.00,028.8,025.0,000.0,036.9,030.1,15.9,0000.0,0011.73,0003.86,0003.32
2023-08-16 00:04:00,SystemResetWarning,0835.0,5.00,000.00,028.8,025.4,000.0,037.0,030.1,15.7,0000.0,0011.66,0003.86,0003.32
2023-08-16 00:05:00,SystemResetWarning,0835.0,5.00,000.00,028.8,025.8,000.0,037.0,030.2,15.7,0000.0,0011.80,0003.83,0003.31
2023-08-16 00:06:00,SystemResetWarning,0835.0,5.00,000.00,028.8,026.2,000.0,037.0,030.3,16.2,0000.0,0012.46,0003.85,0003.30
2023-08-16 00:07:00,SystemResetWarning,0834.9,5.00,000.00,028.8,026.7,000.0,037.1,030.4,16.4,0000.0,0014.29,0003.85,0003.30
2023-08-16 00:08:00,SystemResetWarning,0834.9,5.00,000.00,028.9,027.1,000.0,037.1,030.6,15.6,0000.0,0014.18,0003.86,0003.31
2023-08-16 00:09:00,SystemResetWarning,0834.9,4.99,000.00,028.9,027.5,000.0,037.2,030.7,15.7,0000.0,0014.67,0003.87,0003.30
2023-08-16 00:10:00,SystemResetWarning,0834.8,5.00,000.00,029.0,027.3,000.0,037.1,030.7,15.9,0000.0,0014.60,0003.87,0003.29
2023-08-16 00:11:00,SystemResetWarning,0835.4,4.98,000.00,028.9,025.7,000.0,037.0,030.3,16.3,0000.0,0014.51,0003.86,0003.30
2023-08-16 00:12:00,SystemResetWarning,0835.1,5.02,000.00,028.8,025.0,000.0,036.9,030.1,16.1,0000.0,0014.57,0003.84,0003.30
2023-08-16 00:13:00,SystemResetWarning,0834.9,5.00,000.00,028.8,025.4,000.0,037.0,030.1,15.8,0000.0,0013.50,0003.86,0003.29
2023-08-16 00:14:00,SystemResetWarning,0834.8,4.99,000.00,028.8,025.7,000.0,037.0,030.2,15.9,0000.0,0013.57,0003.89,0003.29
2023-08-16 00:15:00,SystemResetWarning,0834.8,5.00,000.00,028.8,026.2,000.0,037.0,030.3,15.5,0000.0,0013.53,0003.92,0003.30
2023-08-16 00:16:00,SystemResetWarning,0835.0,5.00,000.00,028.8,026.6,000.0,037.1,030.4,15.5,0000.0,0013.08,0004.00,0003.30
2023-08-16 00:17:00,SystemResetWarning,0835.3,5.00,000.00,028.9,027.0,000.0,037.1,030.6,15.2,0000.0,0012.73,0004.00,0003.31
2023-08-16 00:18:00,SystemResetWarning,0835.3,5.00,000.00,028.9,027.4,000.0,037.1,030.7,15.2,0000.0,0011.28,0004.03,0003.32
2023-08-16 00:19:00,SystemResetWarning,0835.4,4.98,000.00,028.9,026.4,000.0,037.1,030.5,15.8,0000.0,0011.58,0004.04,0003.32
2023-08-16 00:20:00,SystemResetWarning,0835.0,5.01,000.00,028.8,024.9,000.0,037.0,030.1,15.1,0000.0,0010.90,0004.02,0003.33
2023-08-16 00:21:00,SystemResetWarning,0835.0,5.01,000.00,028.8,025.0,000.0,036.9,030.1,14.8,0000.0,0011.63,0004.03,0003.34
2023-08-16 00:22:00,SystemResetWarning,0835.2,5.00,000.00,028.7,025.4,000.0,036.9,030.1,15.2,0000.0,0012.32,0004.05,0003.34
2023-08-16 00:23:00,SystemResetWarning,0835.1,5.00,000.00,028.7,025.8,000.0,037.0,030.1,15.4,0000.0,0012.41,0004.09,0003.35
2023-08-16 00:24:00,SystemResetWarning,0835.3,5.00,000.00,028.7,026.3,000.0,037.0,030.3,15.6,0000.0,0012.17,0004.12,0003.36
2023-08-16 00:25:00,SystemResetWarning,0835.3,4.99,000.00,028.8,026.7,000.0,037.0,030.4,15.8,0000.0,0013.24,0004.14,0003.37
2023-08-16 00:26:00,SystemResetWarning,0835.3,5.00,000.00,028.8,027.1,000.0,037.1,030.6,15.4,0000.0,0013.82,0004.19,0003.38
2023-08-16 00:27:00,SystemResetWarning,0835.4,5.01,000.00,028.9,027.4,000.0,037.1,030.7,15.4,0000.0,0013.86,0004.17,0003.39
2023-08-16 00:28:00,SystemResetWarning,0835.0,4.99,000.00,028.9,026.6,000.0,037.0,030.4,16.1,0000.0,0014.02,0004.23,0003.40
2023-08-16 00:29:00,SystemResetWarning,0834.7,4.99,000.00,028.8,025.0,000.0,036.9,030.1,16.8,0000.0,0013.53,0004.21,0003.39
2023-08-16 00:30:00,SystemResetWarning,0834.7,5.02,000.00,028.8,025.0,000.0,036.9,030.1,17.2,0000.0,0012.41,0004.21,0003.39
2023-08-16 00:31:00,SystemResetWarning,0834.7,5.00,000.00,028.7,025.4,000.0,036.9,030.0,17.2,0000.0,0013.69,0004.23,0003.39
2023-08-16 00:32:00,SystemResetWarning,0834.8,5.00,000.00,028.7,025.8,000.0,037.0,030.1,17.2,0000.0,0013.09,0004.24,0003.40
2023-08-16 00:33:00,SystemResetWarning,0834.7,5.00,000.00,028.7,026.3,000.0,037.0,030.2,17.6,0000.0,0012.41,0004.25,0003.39
2023-08-16 00:34:00,SystemResetWarning,0834.8,4.99,000.00,028.8,026.7,000.0,037.0,030.4,16.9,0000.0,0012.51,0004.22,0003.39
2023-08-16 00:35:00,SystemResetWarning,0834.7,5.01,000.00,028.8,027.1,000.0,037.1,030.5,16.9,0000.0,0013.74,0004.20,0003.38
2023-08-16 00:36:00,SystemResetWarning,0834.7,5.00,000.00,028.9,027.4,000.0,037.1,030.7,16.8,0000.0,0013.05,0004.22,0003.38
2023-08-16 00:37:00,SystemResetWarning,0834.8,5.00,000.00,029.0,027.5,000.0,037.1,030.7,16.8,0000.0,0012.75,0004.23,0003.38
2023-08-16 00:38:00,SystemResetWarning,0834.7,4.99,000.00,028.9,025.9,000.0,037.0,030.3,17.0,0000.0,0013.25,0004.21,0003.37
2023-08-16 00:39:00,SystemResetWarning,0834.7,5.01,000.00,028.8,024.9,000.0,036.9,030.2,17.0,0000.0,0013.39,0004.17,0003.36
2023-08-16 00:40:00,SystemResetWarning,0834.8,5.01,000.00,028.8,025.2,000.0,036.9,030.1,16.5,0000.0,0015.18,0004.24,0003.36
2023-08-16 00:41:00,SystemResetWarning,0834.7,4.99,000.00,028.7,025.6,000.0,037.0,030.1,16.4,0000.0,0016.46,0004.27,0003.35
2023-08-16 00:42:00,SystemResetWarning,0834.8,5.00,000.00,028.7,026.0,000.0,037.0,030.2,15.5,0000.0,0015.62,0004.26,0003.34
2023-08-16 00:43:00,SystemResetWarning,0834.7,5.00,000.00,028.8,026.4,000.0,037.0,030.3,15.1,0000.0,0015.42,0004.26,0003.34
2023-08-16 00:44:00,SystemResetWarning,0834.8,5.01,000.00,028.8,026.9,000.0,037.1,030.5,14.9,0000.0,0015.67,0004.22,0003.34
2023-08-16 00:45:00,SystemResetWarning,0834.7,5.00,000.00,028.9,027.3,000.0,037.1,030.6,14.7,0000.0,0017.61,0004.23,0003.34
2023-08-16 00:46:00,SystemResetWarning,0834.7,4.98,000.00,028.9,026.7,000.0,037.1,030.5,15.0,0000.0,0016.44,0004.24,0003.34
2023-08-16 00:47:00,SystemResetWarning,0834.7,5.00,000.00,028.8,025.0,000.0,036.9,030.1,15.3,0000.0,0015.92,0004.24,0003.34
2023-08-16 00:48:00,SystemResetWarning,0834.7,5.01,000.00,028.7,024.8,000.0,036.9,030.0,15.6,0000.0,0015.86,0004.21,0003.33
2023-08-16 00:49:00,SystemResetWarning,0834.7,5.01,000.00,028.7,025.2,000.0,036.9,030.0,15.6,0000.0,0015.82,0004.21,0003.33
2023-08-16 00:50:00,SystemResetWarning,0834.9,5.00,000.00,028.7,025.6,000.0,036.9,030.0,15.5,0000.0,0016.46,0004.19,0003.32
2023-08-16 00:51:00,SystemResetWarning,0834.7,5.00,000.00,028.7,026.1,000.0,037.0,030.2,15.0,0000.0,0015.56,0004.14,0003.32
2023-08-16 00:52:00,SystemResetWarning,0834.9,4.99,000.00,028.7,026.6,000.0,037.0,030.4,15.2,0000.0,0015.01,0004.06,0003.33
2023-08-16 00:53:00,SystemResetWarning,0834.7,5.00,000.00,028.8,027.0,000.0,037.0,030.5,15.2,0000.0,0014.42,0004.07,0003.34
2023-08-16 00:54:00,SystemResetWarning,0834.7,5.00,000.00,028.8,027.3,000.0,037.1,030.6,15.4,0000.0,0014.38,0004.06,0003.33
2023-08-16 00:55:00,SystemResetWarning,0834.7,5.00,000.00,028.9,027.5,000.0,037.1,030.7,15.4,0000.0,0014.37,0004.09,0003.32
2023-08-16 00:56:00,SystemResetWarning,0834.9,4.98,000.00,028.9,026.1,000.0,037.0,030.4,15.6,0000.0,0014.22,0004.14,0003.32
2023-08-16 00:57:00,SystemResetWarning,0835.1,5.02,000.00,028.8,024.7,000.0,036.9,030.0,15.7,0000.0,0014.55,0004.13,0003.32
2023-08-16 00:58:00,SystemResetWarning,0835.2,5.01,000.00,028.7,024.9,000.0,036.9,030.0,15.7,0000.0,0015.00,0004.17,0003.32
2023-08-16 00:59:00,SystemResetWarning,0835.2,4.99,000.00,028.7,025.3,000.0,036.9,030.0,15.8,0000.0,0015.26,0004.19,0003.31
